• En España
  • Lista de países
  • Para 7 días
  • Temperatura del agua
  • Mapa Satelital
  • El tiempo en el mapa
  • Informadores
  • user-avatar
    Iniciar sesión

    Tiempo cada hora Ozhga

    Hoy, 14 Agosto, Martes

    Tiempo Temperatura Precipitaciones Viento Presión Humedad
    00:00 +19°C° 0,4 mm 2 mps 747 mmHg 90%
    01:00 +19°C° 0,4 mm 2 mps 747 mmHg 92%
    02:00 +18°C° 0,3 mm 2 mps 747 mmHg 93%
    03:00 +18°C° 0,3 mm 2 mps 747 mmHg 94%
    04:00 +18°C° 0 mm 2 mps 747 mmHg 95%
    05:00 +18°C° 0,3 mm 2 mps 747 mmHg 94%
    06:00 +19°C° 0,3 mm 2 mps 747 mmHg 93%
    07:00 +19°C° 0,3 mm 2 mps 748 mmHg 92%
    08:00 +20°C° 0,2 mm 2 mps 748 mmHg 85%
    09:00 +22°C° 0,2 mm 3 mps 748 mmHg 78%
    10:00 +23°C° 0 mm 4 mps 748 mmHg 72%
    11:00 +23°C° 0,1 mm 4 mps 748 mmHg 67%
    12:00 +23°C° 0,1 mm 5 mps 748 mmHg 63%
    13:00 +23°C° 0,1 mm 5 mps 748 mmHg 59%
    14:00 +22°C° 0 mm 5 mps 748 mmHg 62%
    15:00 +21°C° 0 mm 4 mps 748 mmHg 65%
    16:00 +20°C° 0 mm 4 mps 748 mmHg 68%
    17:00 +19°C° 0,1 mm 3 mps 749 mmHg 72%
    18:00 +19°C° 0,1 mm 2 mps 749 mmHg 76%
    19:00 +18°C° 0,1 mm 2 mps 749 mmHg 81%
    20:00 +17°C° 0 mm 2 mps 749 mmHg 83%
    21:00 +16°C° 0 mm 2 mps 749 mmHg 86%
    22:00 +15°C° 0 mm 2 mps 750 mmHg 89%
    23:00 +15°C° 0 mm 2 mps 750 mmHg 91%

    Mañana, 15 Agosto, Miércoles

    Tiempo Temperatura Precipitaciones Viento Presión Humedad
    00:00 +14°C° 0 mm 2 mps 750 mmHg 92%
    01:00 +14°C° 0 mm 2 mps 750 mmHg 94%
    02:00 +14°C° 0 mm 2 mps 750 mmHg 94%
    03:00 +13°C° 0 mm 2 mps 751 mmHg 94%
    04:00 +13°C° 0 mm 2 mps 751 mmHg 94%
    05:00 +13°C° 0 mm 3 mps 751 mmHg 91%
    06:00 +13°C° 0 mm 3 mps 751 mmHg 88%
    07:00 +14°C° 0 mm 3 mps 751 mmHg 85%
    08:00 +17°C° 0 mm 3 mps 752 mmHg 78%
    09:00 +18°C° 0 mm 4 mps 752 mmHg 71%
    10:00 +20°C° 0 mm 4 mps 752 mmHg 64%
    11:00 +21°C° 0 mm 4 mps 752 mmHg 62%
    12:00 +22°C° 0 mm 4 mps 752 mmHg 59%
    13:00 +22°C° 0 mm 5 mps 752 mmHg 56%
    14:00 +23°C° 0 mm 4 mps 752 mmHg 56%
    15:00 +23°C° 0 mm 4 mps 752 mmHg 56%
    16:00 +23°C° 0 mm 4 mps 753 mmHg 56%
    17:00 +22°C° 0 mm 3 mps 753 mmHg 62%
    18:00 +21°C° 0 mm 3 mps 753 mmHg 68%
    19:00 +20°C° 0 mm 2 mps 753 mmHg 74%
    20:00 +19°C° 0 mm 2 mps 753 mmHg 77%
    21:00 +17°C° 0 mm 2 mps 753 mmHg 80%
    22:00 +16°C° 0 mm 2 mps 754 mmHg 83%
    23:00 +15°C° 0 mm 2 mps 754 mmHg 84%

    Pasado mañana, 16 Agosto, Jueves

    Tiempo Temperatura Precipitaciones Viento Presión Humedad
    00:00 +15°C° 0 mm 2 mps 754 mmHg 85%
    01:00 +14°C° 0 mm 2 mps 754 mmHg 87%
    02:00 +14°C° 0 mm 2 mps 754 mmHg 87%
    03:00 +14°C° 0 mm 2 mps 754 mmHg 88%
    04:00 +13°C° 0 mm 2 mps 753 mmHg 89%
    05:00 +14°C° 0 mm 3 mps 753 mmHg 86%
    06:00 +16°C° 0 mm 3 mps 753 mmHg 82%
    07:00 +17°C° 0 mm 4 mps 753 mmHg 79%
    08:00 +17°C° 0 mm 5 mps 752 mmHg 75%
    09:00 +20°C° 0 mm 6 mps 752 mmHg 71%
    10:00 +21°C° 0 mm 6 mps 752 mmHg 66%
    11:00 +22°C° 0,4 mm 6 mps 751 mmHg 69%
    12:00 +22°C° 0,4 mm 6 mps 751 mmHg 72%
    13:00 +23°C° 0,4 mm 5 mps 751 mmHg 74%
    14:00 +23°C° 0,3 mm 6 mps 750 mmHg 73%
    15:00 +24°C° 0,3 mm 6 mps 750 mmHg 73%
    16:00 +26°C° 0,3 mm 6 mps 750 mmHg 72%
    17:00 +25°C° 1 mm 5 mps 750 mmHg 77%
    18:00 +23°C° 1 mm 5 mps 750 mmHg 81%
    19:00 +22°C° 1 mm 4 mps 749 mmHg 86%
    20:00 +21°C° 0,2 mm 4 mps 749 mmHg 88%
    21:00 +20°C° 0,2 mm 4 mps 750 mmHg 91%
    22:00 +19°C° 0,2 mm 3 mps 750 mmHg 94%
    23:00 +19°C° 0,3 mm 3 mps 750 mmHg 95%

    17 Agosto, Viernes

    Tiempo Temperatura Precipitaciones Viento Presión Humedad
    00:00 +18°C° 0,3 mm 3 mps 750 mmHg 96%
    01:00 +18°C° 0,3 mm 3 mps 750 mmHg 97%
    02:00 +17°C° 0,3 mm 3 mps 750 mmHg 97%
    03:00 +17°C° 0,3 mm 3 mps 750 mmHg 97%
    04:00 +17°C° 0,3 mm 3 mps 750 mmHg 98%
    05:00 +16°C° 0 mm 3 mps 750 mmHg 96%
    06:00 +16°C° 0 mm 3 mps 751 mmHg 95%
    07:00 +15°C° 0 mm 4 mps 751 mmHg 94%
    08:00 +15°C° 0 mm 4 mps 751 mmHg 88%
    09:00 +17°C° 0 mm 4 mps 751 mmHg 83%
    10:00 +18°C° 0 mm 4 mps 752 mmHg 77%
    11:00 +19°C° 0 mm 4 mps 752 mmHg 72%
    12:00 +20°C° 0 mm 4 mps 752 mmHg 66%
    13:00 +21°C° 0 mm 4 mps 752 mmHg 60%
    14:00 +21°C° 0,1 mm 4 mps 752 mmHg 61%
    15:00 +21°C° 0,1 mm 4 mps 752 mmHg 61%
    16:00 +21°C° 0,1 mm 4 mps 752 mmHg 62%
    17:00 +20°C° 0,3 mm 4 mps 752 mmHg 68%
    18:00 +19°C° 0,3 mm 3 mps 753 mmHg 74%
    19:00 +17°C° 0,3 mm 3 mps 753 mmHg 80%
    20:00 +16°C° 0,1 mm 2 mps 753 mmHg 83%
    21:00 +15°C° 0,1 mm 2 mps 753 mmHg 86%
    22:00 +13°C° 0,1 mm 2 mps 754 mmHg 89%
    23:00 +13°C° 0 mm 2 mps 754 mmHg 91%

    18 Agosto, Sábado

    Tiempo Temperatura Precipitaciones Viento Presión Humedad
    00:00 +12°C° 0 mm 2 mps 754 mmHg 92%
    01:00 +12°C° 0 mm 2 mps 754 mmHg 94%
    02:00 +12°C° 0 mm 2 mps 754 mmHg 94%
    03:00 +10°C° 0 mm 2 mps 754 mmHg 94%
    04:00 +10°C° 0 mm 2 mps 755 mmHg 95%
    05:00 +10°C° 0 mm 3 mps 755 mmHg 93%
    06:00 +11°C° 0 mm 3 mps 755 mmHg 91%
    07:00 +11°C° 0 mm 3 mps 755 mmHg 89%
    08:00 +13°C° 0 mm 4 mps 756 mmHg 82%
    09:00 +14°C° 0 mm 4 mps 756 mmHg 75%
    10:00 +17°C° 0 mm 4 mps 756 mmHg 68%
    11:00 +17°C° 0 mm 4 mps 756 mmHg 64%
    12:00 +18°C° 0 mm 4 mps 756 mmHg 61%
    13:00 +18°C° 0 mm 4 mps 756 mmHg 57%
    14:00 +17°C° 0 mm 5 mps 756 mmHg 58%
    15:00 +17°C° 0 mm 5 mps 756 mmHg 60%
    16:00 +16°C° 0 mm 5 mps 756 mmHg 61%
    17:00 +15°C° 0 mm 4 mps 756 mmHg 65%
    18:00 +14°C° 0 mm 4 mps 756 mmHg 68%
    19:00 +13°C° 0 mm 3 mps 756 mmHg 72%
    20:00 +12°C° 0 mm 3 mps 756 mmHg 75%
    21:00 +11°C° 0 mm 3 mps 757 mmHg 79%
    22:00 +10°C° 0 mm 2 mps 757 mmHg 82%
    23:00 +9°C° 0 mm 2 mps 757 mmHg 84%

    19 Agosto, Domingo

    Tiempo Temperatura Precipitaciones Viento Presión Humedad
    00:00 +9°C° 0 mm 3 mps 757 mmHg 87%
    01:00 +8°C° 0 mm 3 mps 757 mmHg 89%
    02:00 +8°C° 0 mm 3 mps 757 mmHg 90%
    03:00 +8°C° 0 mm 3 mps 758 mmHg 92%
    04:00 +8°C° 0 mm 3 mps 758 mmHg 93%
    05:00 +8°C° 0 mm 3 mps 758 mmHg 90%
    06:00 +9°C° 0 mm 3 mps 758 mmHg 87%
    07:00 +10°C° 0 mm 3 mps 758 mmHg 84%
    08:00 +12°C° 0 mm 3 mps 758 mmHg 77%
    09:00 +14°C° 0 mm 3 mps 758 mmHg 70%
    10:00 +17°C° 0 mm 3 mps 758 mmHg 63%
    11:00 +17°C° 0 mm 3 mps 758 mmHg 60%
    12:00 +18°C° 0 mm 3 mps 758 mmHg 57%
    13:00 +19°C° 0 mm 3 mps 757 mmHg 53%
    14:00 +19°C° 0 mm 3 mps 757 mmHg 53%
    15:00 +19°C° 0 mm 2 mps 757 mmHg 53%
    16:00 +19°C° 0 mm 2 mps 757 mmHg 53%
    17:00 +18°C° 0 mm 2 mps 757 mmHg 59%
    18:00 +18°C° 0 mm 1 mps 757 mmHg 64%
    19:00 +16°C° 0 mm 1 mps 757 mmHg 70%
    20:00 +15°C° 0 mm 1 mps 757 mmHg 73%
    21:00 +12°C° 0 mm 0 mps 757 mmHg 76%
    22:00 +11°C° 0 mm 0 mps 757 mmHg 79%
    23:00 +11°C° 0 mm 0 mps 757 mmHg 80%
    Mostrar más